Weather in Sagarchin

Russia / Orenburg Oblast     50°54′11″N   55°54′29″E
temp.,
°C
wind,
m/s
gust,
m/s
humid.,
%
clouds,
%
prec.,
mm/h
press.,
hPa
HPBL,
m
27 october, wed
wed2723:000wnw11515 0.0 103010
02:000wsw225155 0.0 103118
05:00−1wsw33545 0.0 103138
08:00−2sw355711 0.0 103185
11:00+2sw684360 0.0 1030494
14:00+5wsw793958 0.0 1029791
17:00+5wsw694442 0.0 1028680
20:00+2sw511565 0.0 1028260
28 october, thu
thu2823:00+1sw5125681 0.0 1028269
02:00+1sw51257100 0.0 1027280
05:000sw6136289 0.0 1026312
08:00−1sw6146659 0.0 1025324
11:00+3sw9145386 0.0 1025659
14:00+6wsw10134395 0.0 1023968
17:00+6wsw81249100 0.0 1022933
20:00+4sw6136365 0.0 1023397
29 october, fri
fri2923:00+3sw5127391 0.0 1022310
02:00+3sw51278100 0.0 1022323
05:00+3sw61277100 0.0 1022341
08:00+2sw51184100 0.0 1022327
11:00+5sw6975100 0.0 1023499
14:00+8wsw686095 0.0 1024987
17:00+7wnw576399 0.0 1025990
20:00+5w3691100 0.1 1028719
30 october, sat
sat3023:00+5nnw338799 0.1 1029387
02:00+4nnw2276100 0.0 1031570
05:00+4nnw2275100 0.0 1032250
08:00+4wnw227568 0.0 103350
11:00+5wsw34708 0.0 1034509
14:00+8w67586 0.0 1033854
17:00+8w585789 0.0 1032757
20:00+5wsw51167100 0.0 1032324
31 october, sun
sun3123:00+4wsw512756 0.0 1032309
02:00+3wsw51278100 0.0 1032292
05:00+3w51277100 0.0 1032283
08:00+2w511825 0.0 1032213
11:00+6wnw57685 0.0 1033325
14:00+10wnw56605 0.0 1033612
17:00+10w46623 0.0 1032267
20:00+6w33750 0.0 103325